Location: Ballingbuur
(53.0000°N, 5.7667°E)
Time: 06:39:47
(UTC+00:00)

ADEOS - Pass Details

Date: 29 November 2020
Orbit: 792 x 795 km, 98.9° (Epoch: 23 January)

Event Time Altitude Azimuth Distance (km) Brightness Sun altitude
Rises 04:25:00 0° 16° (NNE) 3,312 7.0 -26.0°
Reaches altitude 10° 04:27:21 10° 18° (NNE) 2,378 6.2 -25.7°
Maximum altitude 04:32:36 78° 105° (ESE) 818 3.6 -24.9°
Drops below altitude 10° 04:37:50 10° 193° (SSW) 2,359 5.9 -24.1°
Sets 04:40:09 0° 194° (SSW) 3,284 6.7 -23.8°
